Time,TemperatureF,DewpointF,PressureIn,WindDirection,WindDirectionDegrees,WindSpeedMPH,WindSpeedGustMPH,Humidity,HourlyPrecipIn,Conditions,Clouds,dailyrainin,SoftwareType,DateUTC
2013-07-25 00:02:00,76.6,33.8,25.10,ESE,113,3.0,6.3,21,0.00,,,-99.99,FreeWX 2.04,2013-07-25 06:02:00,
2013-07-25 00:07:00,76.8,34.0,25.10,ESE,111,3.0,7.8,21,0.00,,,-99.99,FreeWX 2.04,2013-07-25 06:07:00,
2013-07-25 00:12:00,77.5,34.5,25.10,ESE,122,5.0,10.1,21,0.00,,,-99.99,FreeWX 2.04,2013-07-25 06:12:00,
2013-07-25 00:17:00,78.1,33.8,25.07,SE,126,6.0,9.6,20,0.00,,,-99.99,FreeWX 2.04,2013-07-25 06:17:00,
2013-07-25 00:23:00,77.9,33.6,25.07,SE,129,6.0,6.9,20,0.00,,,-99.99,FreeWX 2.04,2013-07-25 06:23:00,
2013-07-25 00:28:00,77.5,33.3,25.07,SE,132,4.0,6.3,20,0.00,,,-99.99,FreeWX 2.04,2013-07-25 06:28:00,
2013-07-25 00:33:00,77.4,33.1,25.10,SE,134,4.0,7.8,20,0.00,,,-99.99,FreeWX 2.04,2013-07-25 06:33:00,
2013-07-25 00:38:00,77.0,34.0,25.10,SE,136,2.0,5.8,21,0.00,,,-99.99,FreeWX 2.04,2013-07-25 06:38:00,
2013-07-25 00:43:00,77.2,34.2,25.10,ESE,123,2.0,7.8,21,0.00,,,-99.99,FreeWX 2.04,2013-07-25 06:43:00,
2013-07-25 00:49:00,77.4,34.3,25.10,ESE,109,4.0,7.4,21,0.00,,,-99.99,FreeWX 2.04,2013-07-25 06:49:00,
2013-07-25 00:54:00,77.2,34.2,25.10,ESE,103,3.0,4.9,21,0.00,,,-99.99,FreeWX 2.04,2013-07-25 06:54:00,
2013-07-25 00:59:00,77.4,34.3,25.10,East,98,2.0,4.5,21,0.00,,,-99.99,FreeWX 2.04,2013-07-25 06:59:00,
2013-07-25 01:04:00,76.3,33.4,25.10,East,92,3.0,8.7,21,0.00,,,-99.99,FreeWX 2.04,2013-07-25 07:04:00,
2013-07-25 01:09:00,75.4,33.8,25.10,NW,306,4.0,6.7,22,0.00,,,-99.99,FreeWX 2.04,2013-07-25 07:09:00,
2013-07-25 01:14:00,75.7,36.3,25.10,WNW,303,5.0,7.8,24,0.00,,,-99.99,FreeWX 2.04,2013-07-25 07:14:00,
2013-07-25 01:19:00,75.7,36.3,25.10,NW,325,5.0,6.9,24,0.00,,,-99.99,FreeWX 2.04,2013-07-25 07:19:00,
2013-07-25 01:24:00,75.4,36.1,25.10,NNW,327,5.0,6.9,24,0.00,,,-99.99,FreeWX 2.04,2013-07-25 07:24:00,
2013-07-25 01:29:00,75.2,36.9,25.10,NW,311,5.0,8.3,25,0.00,,,-99.99,FreeWX 2.04,2013-07-25 07:29:00,
2013-07-25 01:34:00,75.0,36.9,25.10,NW,316,3.0,4.5,25,0.00,,,-99.99,FreeWX 2.04,2013-07-25 07:34:00,
2013-07-25 01:39:00,75.6,36.1,25.10,NNW,337,2.0,6.3,24,0.00,,,-99.99,FreeWX 2.04,2013-07-25 07:39:00,
2013-07-25 01:44:00,76.3,34.7,25.10,North,356,3.0,7.4,22,0.00,,,-99.99,FreeWX 2.04,2013-07-25 07:44:00,
2013-07-25 01:49:00,75.4,35.1,25.10,NNE,23,4.0,5.8,23,0.00,,,-99.99,FreeWX 2.04,2013-07-25 07:49:00,
2013-07-25 01:54:00,74.5,34.2,25.10,NE,49,2.0,5.4,23,0.00,,,-99.99,FreeWX 2.04,2013-07-25 07:54:00,
2013-07-25 01:59:00,74.3,35.2,25.10,North,-999,0.0,3.6,24,0.00,,,-99.99,FreeWX 2.04,2013-07-25 07:59:00,
2013-07-25 02:04:00,76.5,34.7,25.07,NNE,23,2.0,6.3,22,0.00,,,-99.99,FreeWX 2.04,2013-07-25 08:04:00,
2013-07-25 02:09:00,76.1,34.5,25.07,North,358,3.0,4.9,22,0.00,,,-99.99,FreeWX 2.04,2013-07-25 08:09:00,
2013-07-25 02:14:00,75.4,35.1,25.07,NNE,28,2.0,4.5,23,0.00,,,-99.99,FreeWX 2.04,2013-07-25 08:14:00,
2013-07-25 02:19:00,74.8,35.6,25.10,NE,45,1.0,3.1,24,0.00,,,-99.99,FreeWX 2.04,2013-07-25 08:19:00,
2013-07-25 02:24:00,75.2,34.9,25.10,North,-999,0.0,3.1,23,0.00,,,-99.99,FreeWX 2.04,2013-07-25 08:24:00,
2013-07-25 02:29:00,76.1,34.5,25.10,NE,45,1.0,3.1,22,0.00,,,-99.99,FreeWX 2.04,2013-07-25 08:29:00,
2013-07-25 02:34:00,76.5,33.6,25.10,NE,45,1.0,3.6,21,0.00,,,-99.99,FreeWX 2.04,2013-07-25 08:34:00,
2013-07-25 02:39:00,77.0,34.0,25.10,NE,45,1.0,3.6,21,0.00,,,-99.99,FreeWX 2.04,2013-07-25 08:39:00,
2013-07-25 02:44:00,77.0,34.0,25.10,NE,45,2.0,4.0,21,0.00,,,-99.99,FreeWX 2.04,2013-07-25 08:44:00,
2013-07-25 02:49:00,76.6,33.8,25.10,NE,45,3.0,4.9,21,0.00,,,-99.99,FreeWX 2.04,2013-07-25 08:49:00,
2013-07-25 02:54:00,76.8,34.0,25.10,NE,40,3.0,5.8,21,0.00,,,-99.99,FreeWX 2.04,2013-07-25 08:54:00,
2013-07-25 02:59:00,76.6,33.8,25.10,North,11,3.0,6.3,21,0.00,,,-99.99,FreeWX 2.04,2013-07-25 08:59:00,
2013-07-25 03:04:00,76.6,33.8,25.10,North,350,3.0,5.4,21,0.00,,,-99.99,FreeWX 2.04,2013-07-25 09:04:00,
2013-07-25 03:09:00,76.6,33.8,25.10,North,351,1.0,3.6,21,0.00,,,-99.99,FreeWX 2.04,2013-07-25 09:09:00,
2013-07-25 03:14:00,75.4,33.8,25.10,NNW,333,2.0,7.4,22,0.00,,,-99.99,FreeWX 2.04,2013-07-25 09:14:00,
2013-07-25 03:19:00,74.7,34.3,25.10,WNW,288,3.0,4.9,23,0.00,,,-99.99,FreeWX 2.04,2013-07-25 09:19:00,
2013-07-25 03:24:00,73.9,36.0,25.10,West,272,3.0,5.4,25,0.00,,,-99.99,FreeWX 2.04,2013-07-25 09:24:00,
2013-07-25 03:29:00,73.4,37.4,25.10,West,271,4.0,5.8,27,0.00,,,-99.99,FreeWX 2.04,2013-07-25 09:29:00,
2013-07-25 03:34:00,73.2,38.1,25.10,West,271,4.0,6.7,28,0.00,,,-99.99,FreeWX 2.04,2013-07-25 09:34:00,
2013-07-25 03:44:00,73.6,38.5,25.10,WSW,254,5.0,6.3,28,0.00,,,-99.99,FreeWX 2.04,2013-07-25 09:44:00,
2013-07-25 03:49:00,73.6,38.5,25.10,WSW,250,5.0,7.8,28,0.00,,,-99.99,FreeWX 2.04,2013-07-25 09:49:00,
2013-07-25 03:54:00,73.4,40.1,25.10,SW,231,6.0,7.8,30,0.00,,,-99.99,FreeWX 2.04,2013-07-25 09:54:00,
2013-07-25 03:59:00,72.3,41.5,25.10,SSW,204,6.0,7.4,33,0.00,,,-99.99,FreeWX 2.04,2013-07-25 09:59:00,
2013-07-25 04:04:00,70.5,43.0,25.10,South,179,5.0,7.4,37,0.00,,,-99.99,FreeWX 2.04,2013-07-25 10:04:00,
2013-07-25 04:09:00,70.0,43.9,25.10,South,173,5.0,6.3,39,0.00,,,-99.99,FreeWX 2.04,2013-07-25 10:09:00,
2013-07-25 04:14:00,69.6,44.2,25.10,South,173,4.0,6.7,40,0.00,,,-99.99,FreeWX 2.04,2013-07-25 10:14:00,
2013-07-25 04:19:00,69.3,45.1,25.10,SSE,161,4.0,6.3,42,0.00,,,-99.99,FreeWX 2.04,2013-07-25 10:19:00,
2013-07-25 04:24:00,68.9,46.0,25.10,SE,141,3.0,4.5,44,0.00,,,-99.99,FreeWX 2.04,2013-07-25 10:24:00,
2013-07-25 04:29:00,68.7,45.9,25.10,SE,136,2.0,3.6,44,0.00,,,-99.99,FreeWX 2.04,2013-07-25 10:29:00,
2013-07-25 04:34:00,68.5,45.7,25.10,SE,135,2.0,3.6,44,0.00,,,-99.99,FreeWX 2.04,2013-07-25 10:34:00,
2013-07-25 04:39:00,68.2,45.5,25.10,North,-999,0.0,0.0,44,0.00,,,-99.99,FreeWX 2.04,2013-07-25 10:39:00,
2013-07-25 04:44:00,68.4,45.5,25.10,North,-999,0.0,0.0,44,0.00,,,-99.99,FreeWX 2.04,2013-07-25 10:44:00,
2013-07-25 04:49:00,68.7,45.3,25.10,North,-999,0.0,3.6,43,0.00,,,-99.99,FreeWX 2.04,2013-07-25 10:49:00,
2013-07-25 04:54:00,69.6,44.2,25.10,North,-999,0.0,0.0,40,0.00,,,-99.99,FreeWX 2.04,2013-07-25 10:54:00,
2013-07-25 04:59:00,69.6,42.3,25.10,North,-999,0.0,0.0,37,0.00,,,-99.99,FreeWX 2.04,2013-07-25 10:59:00,
2013-07-25 05:04:00,69.4,40.6,25.10,ESE,104,1.0,5.8,35,0.00,,,-99.99,FreeWX 2.04,2013-07-25 11:04:00,
2013-07-25 05:09:00,69.8,40.1,25.10,ENE,71,2.0,5.8,34,0.00,,,-99.99,FreeWX 2.04,2013-07-25 11:09:00,
2013-07-25 05:14:00,71.4,40.1,25.10,SE,142,4.0,7.8,32,0.00,,,-99.99,FreeWX 2.04,2013-07-25 11:14:00,
2013-07-25 05:19:00,72.3,39.9,25.13,SW,231,5.0,6.9,31,0.00,,,-99.99,FreeWX 2.04,2013-07-25 11:19:00,
2013-07-25 05:24:00,71.2,39.9,25.13,SSW,207,4.0,6.9,32,0.00,,,-99.99,FreeWX 2.04,2013-07-25 11:24:00,
2013-07-25 05:29:00,71.1,40.5,25.13,SSE,164,3.0,4.9,33,0.00,,,-99.99,FreeWX 2.04,2013-07-25 11:29:00,
2013-07-25 05:34:00,70.3,40.6,25.13,SE,143,2.0,4.5,34,0.00,,,-99.99,FreeWX 2.04,2013-07-25 11:34:00,
2013-07-25 05:39:00,69.6,40.8,25.13,SSE,147,2.0,4.0,35,0.00,,,-99.99,FreeWX 2.04,2013-07-25 11:39:00,
2013-07-25 05:44:00,69.6,40.8,25.13,SSE,150,2.0,4.0,35,0.00,,,-99.99,FreeWX 2.04,2013-07-25 11:44:00,
2013-07-25 05:49:00,69.4,41.4,25.13,SSE,153,2.0,4.5,36,0.00,,,-99.99,FreeWX 2.04,2013-07-25 11:49:00,
2013-07-25 05:54:00,68.9,41.5,25.13,SSE,154,1.0,4.0,37,0.00,,,-99.99,FreeWX 2.04,2013-07-25 11:54:00,
2013-07-25 05:59:00,68.7,42.1,25.13,SSE,149,1.0,4.0,38,0.00,,,-99.99,FreeWX 2.04,2013-07-25 11:59:00,
2013-07-25 06:04:00,68.5,41.9,25.13,North,-999,0.0,0.0,38,0.00,,,-99.99,FreeWX 2.04,2013-07-25 12:04:00,
2013-07-25 06:09:00,68.4,42.4,25.13,North,-999,0.0,0.0,39,0.00,,,-99.99,FreeWX 2.04,2013-07-25 12:09:00,
2013-07-25 06:14:00,67.8,41.9,25.13,North,-999,0.0,3.1,39,0.00,,,-99.99,FreeWX 2.04,2013-07-25 12:14:00,
2013-07-25 06:19:00,68.2,43.0,25.13,SE,142,1.0,3.6,40,0.00,,,-99.99,FreeWX 2.04,2013-07-25 12:19:00,
2013-07-25 06:24:00,68.2,41.5,25.13,North,-999,0.0,0.0,38,0.00,,,-99.99,FreeWX 2.04,2013-07-25 12:24:00,
2013-07-25 06:29:00,68.9,41.5,25.13,SE,141,1.0,4.5,37,0.00,,,-99.99,FreeWX 2.04,2013-07-25 12:29:00,
2013-07-25 06:34:00,68.7,41.4,25.13,SE,141,1.0,4.0,37,0.00,,,-99.99,FreeWX 2.04,2013-07-25 12:34:00,
2013-07-25 06:39:00,68.5,41.2,25.13,North,-999,0.0,0.0,37,0.00,,,-99.99,FreeWX 2.04,2013-07-25 12:39:00,
2013-07-25 06:44:00,68.4,42.4,25.13,SSE,163,1.0,8.7,39,0.00,,,-99.99,FreeWX 2.04,2013-07-25 12:44:00,
2013-07-25 06:49:00,67.1,45.0,25.13,SW,230,4.0,8.7,45,0.00,,,-99.99,FreeWX 2.04,2013-07-25 12:49:00,
2013-07-25 06:54:00,66.9,45.5,25.13,WSW,248,6.0,7.4,46,0.00,,,-99.99,FreeWX 2.04,2013-07-25 12:54:00,
2013-07-25 06:59:00,67.1,45.0,25.13,WSW,244,4.0,5.8,45,0.00,,,-99.99,FreeWX 2.04,2013-07-25 12:59:00,
2013-07-25 07:04:00,66.9,43.7,25.16,SW,224,4.0,6.3,43,0.00,,,-99.99,FreeWX 2.04,2013-07-25 13:04:00,
2013-07-25 07:09:00,67.3,42.1,25.16,SSW,196,4.0,5.8,40,0.00,,,-99.99,FreeWX 2.04,2013-07-25 13:09:00,
2013-07-25 07:14:00,67.5,42.3,25.16,South,178,4.0,5.4,40,0.00,,,-99.99,FreeWX 2.04,2013-07-25 13:14:00,
2013-07-25 07:19:00,68.2,41.5,25.16,South,177,3.0,5.4,38,0.00,,,-99.99,FreeWX 2.04,2013-07-25 13:19:00,
2013-07-25 07:24:00,69.3,41.9,25.16,South,184,2.0,4.0,37,0.00,,,-99.99,FreeWX 2.04,2013-07-25 13:24:00,
2013-07-25 07:29:00,70.3,42.1,25.16,South,187,1.0,0.0,36,0.00,,,-99.99,FreeWX 2.04,2013-07-25 13:29:00,
2013-07-25 07:34:00,70.2,41.2,25.16,South,186,1.0,4.0,35,0.00,,,-99.99,FreeWX 2.04,2013-07-25 13:34:00,
2013-07-25 07:39:00,71.1,41.2,25.16,South,186,1.0,3.6,34,0.00,,,-99.99,FreeWX 2.04,2013-07-25 13:39:00,
2013-07-25 07:44:00,70.9,40.3,25.16,South,185,2.0,5.4,33,0.00,,,-99.99,FreeWX 2.04,2013-07-25 13:44:00,
2013-07-25 07:49:00,71.4,40.8,25.16,South,174,4.0,5.4,33,0.00,,,-99.99,FreeWX 2.04,2013-07-25 13:49:00,
2013-07-25 07:54:00,72.3,41.5,25.16,SSE,164,4.0,4.9,33,0.00,,,-99.99,FreeWX 2.04,2013-07-25 13:54:00,
2013-07-25 08:00:00,72.9,41.2,25.16,WSW,240,4.0,5.4,32,0.00,,,-99.99,FreeWX 2.04,2013-07-25 14:00:00,
2013-07-25 08:05:00,72.5,41.0,25.16,NW,322,4.0,4.9,32,0.00,,,-99.99,FreeWX 2.04,2013-07-25 14:05:00,
2013-07-25 08:10:00,73.2,41.5,25.16,NNW,339,4.0,5.4,32,0.00,,,-99.99,FreeWX 2.04,2013-07-25 14:10:00,
2013-07-25 08:15:00,73.2,40.8,25.16,NNW,334,4.0,6.9,31,0.00,,,-99.99,FreeWX 2.04,2013-07-25 14:15:00,
2013-07-25 08:20:00,73.0,40.6,25.16,NW,323,5.0,6.9,31,0.00,,,-99.99,FreeWX 2.04,2013-07-25 14:20:00,
2013-07-25 08:25:00,74.1,41.5,25.16,NW,316,5.0,7.4,31,0.00,,,-99.99,FreeWX 2.04,2013-07-25 14:25:00,
2013-07-25 08:30:00,74.8,41.4,25.16,NW,314,4.0,5.4,30,0.00,,,-99.99,FreeWX 2.04,2013-07-25 14:30:00,
2013-07-25 08:35:00,75.6,40.1,25.16,NW,314,3.0,5.8,28,0.00,,,-99.99,FreeWX 2.04,2013-07-25 14:35:00,
2013-07-25 08:40:00,75.7,39.4,25.16,WNW,303,3.0,6.9,27,0.00,,,-99.99,FreeWX 2.04,2013-07-25 14:40:00,
2013-07-25 08:45:00,76.3,38.8,25.16,WNW,291,3.0,4.9,26,0.00,,,-99.99,FreeWX 2.04,2013-07-25 14:45:00,
2013-07-25 08:50:00,76.8,38.3,25.16,WNW,295,3.0,4.5,25,0.00,,,-99.99,FreeWX 2.04,2013-07-25 14:50:00,
2013-07-25 08:55:00,77.2,37.6,25.16,WNW,302,3.0,4.9,24,0.00,,,-99.99,FreeWX 2.04,2013-07-25 14:55:00,
2013-07-25 09:00:00,77.9,37.0,25.16,NW,308,2.0,4.5,23,0.00,,,-99.99,FreeWX 2.04,2013-07-25 15:00:00,
2013-07-25 09:05:00,78.4,37.6,25.16,NNW,331,2.0,4.5,23,0.00,,,-99.99,FreeWX 2.04,2013-07-25 15:05:00,
2013-07-25 09:10:00,78.1,38.3,25.16,WNW,294,3.0,6.7,24,0.00,,,-99.99,FreeWX 2.04,2013-07-25 15:10:00,
2013-07-25 09:15:00,78.1,38.3,25.16,SSW,192,4.0,6.7,24,0.00,,,-99.99,FreeWX 2.04,2013-07-25 15:15:00,
2013-07-25 09:20:00,78.8,37.9,25.16,South,174,4.0,6.9,23,0.00,,,-99.99,FreeWX 2.04,2013-07-25 15:20:00,
2013-07-25 09:25:00,79.2,38.1,25.16,SSW,211,4.0,5.8,23,0.00,,,-99.99,FreeWX 2.04,2013-07-25 15:25:00,
2013-07-25 09:30:00,79.2,37.0,25.16,SW,217,4.0,6.7,22,0.00,,,-99.99,FreeWX 2.04,2013-07-25 15:30:00,
2013-07-25 09:35:00,79.0,36.9,25.16,South,185,4.0,7.8,22,0.00,,,-99.99,FreeWX 2.04,2013-07-25 15:35:00,
2013-07-25 09:40:00,79.2,37.0,25.16,South,171,5.0,6.9,22,0.00,,,-99.99,FreeWX 2.04,2013-07-25 15:40:00,
2013-07-25 09:45:00,79.2,37.0,25.16,South,172,5.0,7.8,22,0.00,,,-99.99,FreeWX 2.04,2013-07-25 15:45:00,
2013-07-25 09:50:00,79.5,37.4,25.16,South,172,5.0,6.7,22,0.00,,,-99.99,FreeWX 2.04,2013-07-25 15:50:00,
2013-07-25 09:55:00,80.1,37.8,25.16,SSE,167,5.0,7.8,22,0.00,,,-99.99,FreeWX 2.04,2013-07-25 15:55:00,
2013-07-25 10:00:00,79.3,37.2,25.16,SSE,163,5.0,9.6,22,0.00,,,-99.99,FreeWX 2.04,2013-07-25 16:00:00,
2013-07-25 10:05:00,79.3,37.2,25.16,SSE,158,6.0,10.1,22,0.00,,,-99.99,FreeWX 2.04,2013-07-25 16:05:00,
2013-07-25 10:10:00,80.4,36.9,25.16,South,187,6.0,8.7,21,0.00,,,-99.99,FreeWX 2.04,2013-07-25 16:10:00,
2013-07-25 10:15:00,81.1,37.4,25.16,SW,218,5.0,9.6,21,0.00,,,-99.99,FreeWX 2.04,2013-07-25 16:15:00,
2013-07-25 10:20:00,81.0,36.1,25.16,South,187,5.0,9.6,20,0.00,,,-99.99,FreeWX 2.04,2013-07-25 16:20:00,
2013-07-25 10:25:00,80.6,37.0,25.16,South,187,6.0,10.1,21,0.00,,,-99.99,FreeWX 2.04,2013-07-25 16:25:00,
2013-07-25 10:30:00,80.8,37.2,25.16,SSW,209,6.0,7.8,21,0.00,,,-99.99,FreeWX 2.04,2013-07-25 16:30:00,
2013-07-25 10:35:00,81.1,36.3,25.16,SSW,199,6.0,11.2,20,0.00,,,-99.99,FreeWX 2.04,2013-07-25 16:35:00,
2013-07-25 10:40:00,81.9,36.9,25.16,SSW,212,6.0,10.5,20,0.00,,,-99.99,FreeWX 2.04,2013-07-25 16:40:00,
2013-07-25 10:45:00,81.1,36.3,25.16,SW,228,5.0,9.6,20,0.00,,,-99.99,FreeWX 2.04,2013-07-25 16:45:00,
2013-07-25 10:50:00,81.5,36.5,25.16,SW,232,6.0,9.6,20,0.00,,,-99.99,FreeWX 2.04,2013-07-25 16:50:00,
2013-07-25 10:55:00,81.9,36.9,25.16,WSW,243,6.0,11.0,20,0.00,,,-99.99,FreeWX 2.04,2013-07-25 16:55:00,
2013-07-25 11:00:00,82.0,35.6,25.16,WSW,239,6.0,11.2,19,0.00,,,-99.99,FreeWX 2.04,2013-07-25 17:00:00,
2013-07-25 11:05:00,81.9,35.6,25.16,WSW,240,6.0,11.0,19,0.00,,,-99.99,FreeWX 2.04,2013-07-25 17:05:00,
2013-07-25 11:10:00,82.4,36.0,25.16,WSW,255,6.0,10.1,19,0.00,,,-99.99,FreeWX 2.04,2013-07-25 17:10:00,
2013-07-25 11:15:00,82.8,36.3,25.16,WSW,257,6.0,9.6,19,0.00,,,-99.99,FreeWX 2.04,2013-07-25 17:15:00,
2013-07-25 11:20:00,82.4,36.0,25.16,WSW,252,5.0,10.5,19,0.00,,,-99.99,FreeWX 2.04,2013-07-25 17:20:00,
2013-07-25 11:25:00,82.2,35.8,25.16,WNW,283,5.0,9.2,19,0.00,,,-99.99,FreeWX 2.04,2013-07-25 17:25:00,
2013-07-25 11:30:00,83.5,36.9,25.16,NW,311,4.0,6.9,19,0.00,,,-99.99,FreeWX 2.04,2013-07-25 17:30:00,
2013-07-25 11:35:00,85.1,36.9,25.16,SE,134,3.0,7.4,18,0.00,,,-99.99,FreeWX 2.04,2013-07-25 17:35:00,
2013-07-25 11:40:00,86.4,37.8,25.16,NE,48,4.0,8.3,18,0.00,,,-99.99,FreeWX 2.04,2013-07-25 17:40:00,
2013-07-25 11:45:00,85.8,29.3,25.16,North,350,5.0,9.2,13,0.00,,,-99.99,FreeWX 2.04,2013-07-25 17:45:00,
2013-07-25 11:50:00,85.1,33.8,25.16,NW,306,5.0,8.7,16,0.00,,,-99.99,FreeWX 2.04,2013-07-25 17:50:00,
2013-07-25 11:55:00,85.3,34.0,25.16,West,276,5.0,10.5,16,0.00,,,-99.99,FreeWX 2.04,2013-07-25 17:55:00,
2013-07-25 12:00:00,84.7,33.6,25.16,West,279,6.0,9.2,16,0.00,,,-99.99,FreeWX 2.04,2013-07-25 18:00:00,
2013-07-25 12:05:00,85.1,33.8,25.16,West,277,5.0,8.3,16,0.00,,,-99.99,FreeWX 2.04,2013-07-25 18:05:00,
2013-07-25 12:10:00,86.2,34.7,25.16,NNE,30,4.0,10.1,16,0.00,,,-99.99,FreeWX 2.04,2013-07-25 18:10:00,
2013-07-25 12:15:00,85.5,34.2,25.16,WNW,301,6.0,11.2,16,0.00,,,-99.99,FreeWX 2.04,2013-07-25 18:15:00,
2013-07-25 12:20:00,85.6,34.3,25.16,West,276,6.0,9.2,16,0.00,,,-99.99,FreeWX 2.04,2013-07-25 18:20:00,
2013-07-25 12:25:00,86.7,30.0,25.16,West,271,6.0,11.0,13,0.00,,,-99.99,FreeWX 2.04,2013-07-25 18:25:00,
2013-07-25 12:30:00,86.4,29.7,25.16,West,259,8.0,13.4,13,0.00,,,-99.99,FreeWX 2.04,2013-07-25 18:30:00,
2013-07-25 12:35:00,87.1,-99.9,25.16,SW,231,7.0,13.9,-999,0.00,,,-99.99,FreeWX 2.04,2013-07-25 18:35:00,
2013-07-25 12:40:00,87.6,30.7,25.16,South,188,7.0,10.1,13,0.00,,,-99.99,FreeWX 2.04,2013-07-25 18:40:00,
2013-07-25 12:45:00,87.3,-99.9,25.16,South,171,6.0,10.1,-999,0.00,,,-99.99,FreeWX 2.04,2013-07-25 18:45:00,
2013-07-25 12:50:00,86.9,30.2,25.16,SSW,200,7.0,14.8,13,0.00,,,-99.99,FreeWX 2.04,2013-07-25 18:50:00,
2013-07-25 12:55:00,87.1,-99.9,25.16,WSW,251,5.0,6.7,-999,0.00,,,-99.99,FreeWX 2.04,2013-07-25 18:55:00,
2013-07-25 13:00:00,88.3,-99.9,25.13,North,10,3.0,6.7,-999,0.00,,,-99.99,FreeWX 2.04,2013-07-25 19:00:00,
2013-07-25 13:05:00,89.1,-99.9,25.13,NNE,20,3.0,6.9,-999,0.00,,,-99.99,FreeWX 2.04,2013-07-25 19:05:00,
2013-07-25 13:10:00,88.5,-99.9,25.13,ENE,64,5.0,11.0,-999,0.00,,,-99.99,FreeWX 2.04,2013-07-25 19:10:00,
2013-07-25 13:15:00,88.0,-99.9,25.13,SSE,161,7.0,9.6,-999,0.00,,,-99.99,FreeWX 2.04,2013-07-25 19:15:00,
2013-07-25 13:20:00,89.1,-99.9,25.13,SE,138,5.0,5.4,-999,0.00,,,-99.99,FreeWX 2.04,2013-07-25 19:20:00,
2013-07-25 13:25:00,88.7,-99.9,25.13,SE,139,4.0,11.6,-999,0.00,,,-99.99,FreeWX 2.04,2013-07-25 19:25:00,
2013-07-25 13:30:00,88.9,-99.9,25.13,WSW,239,6.0,11.0,-999,0.00,,,-99.99,FreeWX 2.04,2013-07-25 19:30:00,
2013-07-25 13:35:00,88.0,-99.9,25.13,West,263,5.0,8.7,-999,0.00,,,-99.99,FreeWX 2.04,2013-07-25 19:35:00,
2013-07-25 13:40:00,88.9,-99.9,25.13,West,277,5.0,9.2,-999,0.00,,,-99.99,FreeWX 2.04,2013-07-25 19:40:00,
2013-07-25 13:46:00,91.0,-99.9,25.13,WSW,239,5.0,11.2,-999,0.00,,,-99.99,FreeWX 2.04,2013-07-25 19:46:00,
2013-07-25 13:51:00,90.7,-99.9,25.13,SSW,212,7.0,13.9,-999,0.00,,,-99.99,FreeWX 2.04,2013-07-25 19:51:00,
2013-07-25 13:56:00,90.7,-99.9,25.13,SSW,199,8.0,13.9,-999,0.00,,,-99.99,FreeWX 2.04,2013-07-25 19:56:00,
2013-07-25 14:01:00,91.0,-99.9,25.10,SSW,195,8.0,13.0,-999,0.00,,,-99.99,FreeWX 2.04,2013-07-25 20:01:00,
2013-07-25 14:06:00,92.3,-99.9,25.10,SW,219,8.0,12.1,-999,0.00,,,-99.99,FreeWX 2.04,2013-07-25 20:06:00,
2013-07-25 14:11:00,92.5,-99.9,25.10,SW,223,9.0,16.3,-999,0.00,,,-99.99,FreeWX 2.04,2013-07-25 20:11:00,
2013-07-25 14:16:00,91.9,-99.9,25.10,SW,215,9.0,13.0,-999,0.00,,,-99.99,FreeWX 2.04,2013-07-25 20:16:00,
2013-07-25 14:21:00,92.7,-99.9,25.10,SSW,205,9.0,16.3,-999,0.00,,,-99.99,FreeWX 2.04,2013-07-25 20:21:00,
2013-07-25 14:26:00,91.4,-99.9,25.10,SSW,199,9.0,12.5,-999,0.00,,,-99.99,FreeWX 2.04,2013-07-25 20:26:00,
2013-07-25 14:31:00,91.8,-99.9,25.10,SW,224,8.0,17.2,-999,0.00,,,-99.99,FreeWX 2.04,2013-07-25 20:31:00,
2013-07-25 14:36:00,93.0,-99.9,25.10,WSW,239,11.0,18.6,-999,0.00,,,-99.99,FreeWX 2.04,2013-07-25 20:36:00,
2013-07-25 14:41:00,92.8,-99.9,25.10,SSW,213,11.0,15.2,-999,0.00,,,-99.99,FreeWX 2.04,2013-07-25 20:41:00,
2013-07-25 14:46:00,91.8,-99.9,25.10,SSW,199,9.0,13.4,-999,0.00,,,-99.99,FreeWX 2.04,2013-07-25 20:46:00,
2013-07-25 14:51:00,90.5,-99.9,25.10,SSW,199,9.0,13.9,-999,0.00,,,-99.99,FreeWX 2.04,2013-07-25 20:51:00,
2013-07-25 14:56:00,90.3,-99.9,25.10,SSW,205,10.0,15.2,-999,0.00,,,-99.99,FreeWX 2.04,2013-07-25 20:56:00,
2013-07-25 15:01:00,90.0,-99.9,25.10,SW,228,10.0,14.3,-999,0.00,,,-99.99,FreeWX 2.04,2013-07-25 21:01:00,
2013-07-25 15:06:00,90.1,-99.9,25.10,SW,234,10.0,16.3,-999,0.00,,,-99.99,FreeWX 2.04,2013-07-25 21:06:00,
2013-07-25 15:11:00,90.7,-99.9,25.10,SSW,213,9.0,12.5,-999,0.00,,,-99.99,FreeWX 2.04,2013-07-25 21:11:00,
2013-07-25 15:21:00,90.0,-99.9,25.10,SW,223,9.0,13.9,-999,0.00,,,-99.99,FreeWX 2.04,2013-07-25 21:21:00,
2013-07-25 15:31:00,90.5,-99.9,25.10,SSW,211,8.0,11.6,-999,0.00,,,-99.99,FreeWX 2.04,2013-07-25 21:31:00,
2013-07-25 15:36:00,90.7,-99.9,25.10,SSW,201,8.0,11.2,-999,0.00,,,-99.99,FreeWX 2.04,2013-07-25 21:36:00,
2013-07-25 15:42:00,90.9,-99.9,25.10,SW,214,8.0,12.5,-999,0.00,,,-99.99,FreeWX 2.04,2013-07-25 21:42:00,
2013-07-25 15:47:00,91.2,-99.9,25.10,SW,223,8.0,13.4,-999,0.00,,,-99.99,FreeWX 2.04,2013-07-25 21:47:00,
2013-07-25 15:52:00,91.9,-99.9,25.10,SW,227,8.0,13.9,-999,0.00,,,-99.99,FreeWX 2.04,2013-07-25 21:52:00,
2013-07-25 15:57:00,91.9,-99.9,25.10,SW,228,9.0,13.0,-999,0.00,,,-99.99,FreeWX 2.04,2013-07-25 21:57:00,
2013-07-25 16:02:00,92.8,-99.9,25.07,SW,216,9.0,13.4,-999,0.00,,,-99.99,FreeWX 2.04,2013-07-25 22:02:00,
2013-07-25 16:07:00,93.2,-99.9,25.07,SSW,209,9.0,13.0,-999,0.00,,,-99.99,FreeWX 2.04,2013-07-25 22:07:00,
2013-07-25 16:12:00,93.2,-99.9,25.07,SSW,208,10.0,13.4,-999,0.00,,,-99.99,FreeWX 2.04,2013-07-25 22:12:00,
2013-07-25 16:17:00,94.5,-99.9,25.07,SSW,203,10.0,13.4,-999,0.00,,,-99.99,FreeWX 2.04,2013-07-25 22:17:00,
2013-07-25 16:22:00,94.6,-99.9,25.07,SSW,198,11.0,18.6,-999,0.00,,,-99.99,FreeWX 2.04,2013-07-25 22:22:00,
2013-07-25 16:27:00,94.3,-99.9,25.07,South,190,11.0,14.8,-999,0.00,,,-99.99,FreeWX 2.04,2013-07-25 22:27:00,
2013-07-25 16:32:00,94.3,-99.9,25.07,South,177,10.0,13.9,-999,0.00,,,-99.99,FreeWX 2.04,2013-07-25 22:32:00,
2013-07-25 16:37:00,94.1,-99.9,25.07,South,179,10.0,13.0,-999,0.00,,,-99.99,FreeWX 2.04,2013-07-25 22:37:00,
2013-07-25 16:42:00,93.6,-99.9,25.07,South,178,10.0,14.3,-999,0.00,,,-99.99,FreeWX 2.04,2013-07-25 22:42:00,
2013-07-25 16:47:00,94.1,-99.9,25.07,SSE,159,8.0,8.7,-999,0.00,,,-99.99,FreeWX 2.04,2013-07-25 22:47:00,
2013-07-25 16:52:00,91.9,-99.9,25.07,South,170,9.0,21.5,-999,0.00,,,-99.99,FreeWX 2.04,2013-07-25 22:52:00,
2013-07-25 16:57:00,92.1,-99.9,25.07,SW,217,12.0,21.0,-999,0.00,,,-99.99,FreeWX 2.04,2013-07-25 22:57:00,
2013-07-25 17:02:00,91.6,-99.9,25.07,WSW,239,12.0,19.5,-999,0.00,,,-99.99,FreeWX 2.04,2013-07-25 23:02:00,
2013-07-25 17:07:00,91.8,-99.9,25.07,WSW,238,14.0,24.8,-999,0.00,,,-99.99,FreeWX 2.04,2013-07-25 23:07:00,
2013-07-25 17:12:00,91.8,-99.9,25.07,WSW,239,16.0,20.6,-999,0.00,,,-99.99,FreeWX 2.04,2013-07-25 23:12:00,
2013-07-25 17:17:00,90.9,-99.9,25.10,WSW,244,15.0,21.5,-999,0.00,,,-99.99,FreeWX 2.04,2013-07-25 23:17:00,
2013-07-25 17:22:00,91.8,-99.9,25.10,WSW,250,13.0,16.3,-999,0.00,,,-99.99,FreeWX 2.04,2013-07-25 23:22:00,
2013-07-25 17:27:00,91.9,-99.9,25.10,WSW,254,10.0,14.3,-999,0.00,,,-99.99,FreeWX 2.04,2013-07-25 23:27:00,
2013-07-25 17:32:00,91.8,-99.9,25.07,WSW,251,9.0,13.9,-999,0.00,,,-99.99,FreeWX 2.04,2013-07-25 23:32:00,
2013-07-25 17:37:00,91.0,-99.9,25.07,WSW,253,10.0,14.3,-999,0.00,,,-99.99,FreeWX 2.04,2013-07-25 23:37:00,
2013-07-25 17:42:00,91.4,-99.9,25.07,West,264,10.0,14.8,-999,0.00,,,-99.99,FreeWX 2.04,2013-07-25 23:42:00,
2013-07-25 17:47:00,91.9,-99.9,25.07,West,264,8.0,13.0,-999,0.00,,,-99.99,FreeWX 2.04,2013-07-25 23:47:00,
2013-07-25 17:52:00,91.4,-99.9,25.07,WNW,286,7.0,13.4,-999,0.00,,,-99.99,FreeWX 2.04,2013-07-25 23:52:00,
2013-07-25 17:57:00,91.4,-99.9,25.07,NNW,340,6.0,10.1,-999,0.00,,,-99.99,FreeWX 2.04,2013-07-25 23:57:00,
2013-07-25 18:02:00,91.6,-99.9,25.07,NW,320,6.0,11.6,-999,0.00,,,-99.99,FreeWX 2.04,2013-07-26 00:02:00,
2013-07-25 18:07:00,92.3,-99.9,25.07,WNW,287,5.0,12.5,-999,0.00,,,-99.99,FreeWX 2.04,2013-07-26 00:07:00,
2013-07-25 18:12:00,91.8,-99.9,25.07,NW,314,4.0,8.7,-999,0.00,,,-99.99,FreeWX 2.04,2013-07-26 00:12:00,
2013-07-25 18:17:00,91.8,-99.9,25.07,NNW,346,5.0,12.1,-999,0.00,,,-99.99,FreeWX 2.04,2013-07-26 00:17:00,
2013-07-25 18:22:00,91.9,-99.9,25.07,NNW,348,4.0,6.3,-999,0.00,,,-99.99,FreeWX 2.04,2013-07-26 00:22:00,
2013-07-25 18:27:00,92.8,-99.9,25.07,North,353,3.0,7.8,-999,0.00,,,-99.99,FreeWX 2.04,2013-07-26 00:27:00,
2013-07-25 18:32:00,91.9,-99.9,25.07,NE,34,3.0,10.1,-999,0.00,,,-99.99,FreeWX 2.04,2013-07-26 00:32:00,
2013-07-25 18:37:00,91.4,-99.9,25.07,NNE,24,4.0,8.7,-999,0.00,,,-99.99,FreeWX 2.04,2013-07-26 00:37:00,
2013-07-25 18:42:00,91.0,-99.9,25.07,North,353,7.0,12.1,-999,0.00,,,-99.99,FreeWX 2.04,2013-07-26 00:42:00,
2013-07-25 18:47:00,91.2,-99.9,25.07,North,351,7.0,10.1,-999,0.00,,,-99.99,FreeWX 2.04,2013-07-26 00:47:00,
2013-07-25 18:52:00,91.0,-99.9,25.07,North,1,6.0,10.5,-999,0.00,,,-99.99,FreeWX 2.04,2013-07-26 00:52:00,
2013-07-25 18:57:00,91.2,-99.9,25.07,North,357,6.0,8.7,-999,0.00,,,-99.99,FreeWX 2.04,2013-07-26 00:57:00,
2013-07-25 19:02:00,91.4,-99.9,25.07,North,350,6.0,7.4,-999,0.00,,,-99.99,FreeWX 2.04,2013-07-26 01:02:00,
2013-07-25 19:07:00,91.0,-99.9,25.07,North,356,5.0,8.3,-999,0.00,,,-99.99,FreeWX 2.04,2013-07-26 01:07:00,
2013-07-25 19:12:00,91.0,-99.9,25.07,North,6,5.0,7.8,-999,0.00,,,-99.99,FreeWX 2.04,2013-07-26 01:12:00,
2013-07-25 19:17:00,91.2,-99.9,25.07,NNE,19,4.0,5.8,-999,0.00,,,-99.99,FreeWX 2.04,2013-07-26 01:17:00,
2013-07-25 19:22:00,91.0,-99.9,25.07,NNE,19,4.0,6.3,-999,0.00,,,-99.99,FreeWX 2.04,2013-07-26 01:22:00,
2013-07-25 19:28:00,90.7,-99.9,25.07,NNE,14,4.0,6.9,-999,0.00,,,-99.99,FreeWX 2.04,2013-07-26 01:28:00,
2013-07-25 19:33:00,90.7,-99.9,25.07,NNE,28,4.0,5.8,-999,0.00,,,-99.99,FreeWX 2.04,2013-07-26 01:33:00,
2013-07-25 19:38:00,90.5,-99.9,25.07,NNE,21,4.0,6.3,-999,0.00,,,-99.99,FreeWX 2.04,2013-07-26 01:38:00,
2013-07-25 19:43:00,90.3,-99.9,25.07,North,354,3.0,4.5,-999,0.00,,,-99.99,FreeWX 2.04,2013-07-26 01:43:00,
2013-07-25 19:48:00,90.1,-99.9,25.07,NNW,348,3.0,5.4,-999,0.00,,,-99.99,FreeWX 2.04,2013-07-26 01:48:00,
2013-07-25 19:53:00,90.0,-99.9,25.07,NNW,347,3.0,5.4,-999,0.00,,,-99.99,FreeWX 2.04,2013-07-26 01:53:00,
2013-07-25 19:58:00,89.8,-99.9,25.07,NNW,346,4.0,4.9,-999,0.00,,,-99.99,FreeWX 2.04,2013-07-26 01:58:00,
2013-07-25 20:03:00,89.6,-99.9,25.07,NNW,346,3.0,4.0,-999,0.00,,,-99.99,FreeWX 2.04,2013-07-26 02:03:00,
2013-07-25 20:08:00,89.4,-99.9,25.07,NNW,346,2.0,4.5,-999,0.00,,,-99.99,FreeWX 2.04,2013-07-26 02:08:00,
2013-07-25 20:13:00,89.4,-99.9,25.07,NNW,346,1.0,3.1,-999,0.00,,,-99.99,FreeWX 2.04,2013-07-26 02:13:00,
2013-07-25 20:18:00,88.7,-99.9,25.07,NNW,346,1.0,3.6,-999,0.00,,,-99.99,FreeWX 2.04,2013-07-26 02:18:00,
2013-07-25 20:23:00,88.0,-99.9,25.07,NNW,346,1.0,2.7,-999,0.00,,,-99.99,FreeWX 2.04,2013-07-26 02:23:00,
2013-07-25 20:28:00,87.4,-99.9,25.07,North,-999,0.0,0.0,-999,0.00,,,-99.99,FreeWX 2.04,2013-07-26 02:28:00,
2013-07-25 20:33:00,87.4,-99.9,25.07,North,-999,0.0,4.5,-999,0.00,,,-99.99,FreeWX 2.04,2013-07-26 02:33:00,
2013-07-25 20:38:00,86.2,-99.9,25.07,North,359,2.0,4.9,-999,0.00,,,-99.99,FreeWX 2.04,2013-07-26 02:38:00,
2013-07-25 20:43:00,85.1,-99.9,25.07,NNE,16,2.0,3.1,-999,0.00,,,-99.99,FreeWX 2.04,2013-07-26 02:43:00,
2013-07-25 20:48:00,84.6,-99.9,25.07,North,-999,0.0,0.0,-999,0.00,,,-99.99,FreeWX 2.04,2013-07-26 02:48:00,
2013-07-25 20:53:00,84.7,-99.9,25.07,North,-999,0.0,0.0,-999,0.00,,,-99.99,FreeWX 2.04,2013-07-26 02:53:00,
2013-07-25 20:58:00,84.6,-99.9,25.07,North,-999,0.0,0.0,-999,0.00,,,-99.99,FreeWX 2.04,2013-07-26 02:58:00,
2013-07-25 21:03:00,84.4,-99.9,25.07,North,-999,0.0,3.6,-999,0.00,,,-99.99,FreeWX 2.04,2013-07-26 03:03:00,
2013-07-25 21:08:00,85.3,-99.9,25.07,North,5,2.0,6.3,-999,0.00,,,-99.99,FreeWX 2.04,2013-07-26 03:08:00,
2013-07-25 21:13:00,84.9,-99.9,25.07,NNW,346,4.0,5.8,-999,0.00,,,-99.99,FreeWX 2.04,2013-07-26 03:13:00,
2013-07-25 21:18:00,83.8,-99.9,25.10,NNW,343,3.0,4.9,-999,0.00,,,-99.99,FreeWX 2.04,2013-07-26 03:18:00,
2013-07-25 21:23:00,83.1,-99.9,25.10,NNW,346,3.0,4.5,-999,0.00,,,-99.99,FreeWX 2.04,2013-07-26 03:23:00,
2013-07-25 21:28:00,82.8,-99.9,25.10,NNW,348,3.0,5.4,-999,0.00,,,-99.99,FreeWX 2.04,2013-07-26 03:28:00,
2013-07-25 21:33:00,82.8,-99.9,25.10,North,350,3.0,4.0,-999,0.00,,,-99.99,FreeWX 2.04,2013-07-26 03:33:00,
2013-07-25 21:38:00,83.8,-99.9,25.10,North,351,2.0,4.9,-999,0.00,,,-99.99,FreeWX 2.04,2013-07-26 03:38:00,
2013-07-25 21:43:00,83.1,-99.9,25.10,North,351,3.0,5.4,-999,0.00,,,-99.99,FreeWX 2.04,2013-07-26 03:43:00,
2013-07-25 21:48:00,82.9,-99.9,25.10,North,351,4.0,5.4,-999,0.00,,,-99.99,FreeWX 2.04,2013-07-26 03:48:00,
2013-07-25 21:53:00,82.0,-99.9,25.10,North,351,4.0,4.5,-999,0.00,,,-99.99,FreeWX 2.04,2013-07-26 03:53:00,
2013-07-25 21:59:00,81.5,-99.9,25.10,North,350,2.0,4.5,-999,0.00,,,-99.99,FreeWX 2.04,2013-07-26 03:59:00,
2013-07-25 22:04:00,81.9,-99.9,25.10,North,354,3.0,5.4,-999,0.00,,,-99.99,FreeWX 2.04,2013-07-26 04:04:00,
2013-07-25 22:09:00,82.2,-99.9,25.10,North,3,4.0,5.8,-999,0.00,,,-99.99,FreeWX 2.04,2013-07-26 04:09:00,
2013-07-25 22:14:00,83.7,-99.9,25.10,North,8,5.0,7.4,-999,0.00,,,-99.99,FreeWX 2.04,2013-07-26 04:14:00,
2013-07-25 22:19:00,83.7,-99.9,25.10,North,6,5.0,5.8,-999,0.00,,,-99.99,FreeWX 2.04,2013-07-26 04:19:00,
2013-07-25 22:24:00,83.3,-99.9,25.10,North,357,3.0,4.9,-999,0.00,,,-99.99,FreeWX 2.04,2013-07-26 04:24:00,
2013-07-25 22:29:00,82.9,-99.9,25.10,North,355,3.0,4.9,-999,0.00,,,-99.99,FreeWX 2.04,2013-07-26 04:29:00,
2013-07-25 22:34:00,82.2,-99.9,25.10,North,3,3.0,4.9,-999,0.00,,,-99.99,FreeWX 2.04,2013-07-26 04:34:00,
2013-07-25 22:39:00,82.0,-99.9,25.10,North,7,2.0,4.5,-999,0.00,,,-99.99,FreeWX 2.04,2013-07-26 04:39:00,
2013-07-25 22:44:00,82.0,-99.9,25.10,North,7,2.0,5.4,-999,0.00,,,-99.99,FreeWX 2.04,2013-07-26 04:44:00,
2013-07-25 22:49:00,81.5,-99.9,25.13,NNE,15,3.0,5.8,-999,0.00,,,-99.99,FreeWX 2.04,2013-07-26 04:49:00,
2013-07-25 22:54:00,82.6,-99.9,25.13,NNE,19,4.0,6.7,-999,0.00,,,-99.99,FreeWX 2.04,2013-07-26 04:54:00,
2013-07-25 22:59:00,83.1,-99.9,25.13,NNE,18,5.0,7.8,-999,0.00,,,-99.99,FreeWX 2.04,2013-07-26 04:59:00,
2013-07-25 23:04:00,83.3,-99.9,25.13,North,11,5.0,7.4,-999,0.00,,,-99.99,FreeWX 2.04,2013-07-26 05:04:00,
2013-07-25 23:09:00,83.5,-99.9,25.13,North,351,5.0,6.3,-999,0.00,,,-99.99,FreeWX 2.04,2013-07-26 05:09:00,
2013-07-25 23:14:00,82.9,-99.9,25.13,NNW,342,4.0,4.9,-999,0.00,,,-99.99,FreeWX 2.04,2013-07-26 05:14:00,
2013-07-25 23:19:00,82.4,-99.9,25.13,North,349,3.0,4.9,-999,0.00,,,-99.99,FreeWX 2.04,2013-07-26 05:19:00,
2013-07-25 23:29:00,81.1,-99.9,25.13,NE,39,3.0,4.9,-999,0.00,,,-99.99,FreeWX 2.04,2013-07-26 05:29:00,
2013-07-25 23:34:00,80.6,-99.9,25.13,ENE,59,2.0,4.9,-999,0.00,,,-99.99,FreeWX 2.04,2013-07-26 05:34:00,
2013-07-25 23:39:00,81.1,-99.9,25.13,ENE,59,2.0,4.5,-999,0.00,,,-99.99,FreeWX 2.04,2013-07-26 05:39:00,
2013-07-25 23:44:00,81.3,-99.9,25.13,ENE,59,2.0,4.0,-999,0.00,,,-99.99,FreeWX 2.04,2013-07-26 05:44:00,
2013-07-25 23:49:00,80.2,-99.9,25.13,ENE,59,2.0,5.8,-999,0.00,,,-99.99,FreeWX 2.04,2013-07-26 05:49:00,
2013-07-25 23:54:00,79.9,-99.9,25.13,ENE,59,3.0,5.4,-999,0.00,,,-99.99,FreeWX 2.04,2013-07-26 05:54:00,
2013-07-25 23:59:00,79.2,-99.9,25.13,ENE,59,4.0,5.8,-999,0.00,,,-99.99,FreeWX 2.04,2013-07-26 05:59:00,